Location: Newark
(52.4787°S, 179.0532°W)
Time: 02:12:00
(UTC+00:00)

Vanguard 1 - Pass Details

Date: 23 November 2019
Orbit: 651 x 3832 km, 34.3° (Epoch: 11 December)

Event Time Altitude Azimuth Distance (km) Brightness Sun altitude
Rises 14:39:34 0° 270° (W) 6,549 13.9 -7.6°
Reaches altitude 10° 14:44:14 10° 279° (W) 5,931 13.6 -7.2°
Maximum altitude 14:59:50 30° 330° (NNW) 5,233 13.2 -5.5°
Drops below altitude 10° 15:17:56 10° 21° (NNE) 6,820 14.1 -3.5°
Sets 15:23:59 0° 30° (NNE) 7,626 14.5 -2.8°
